User: anonymous   Login
Location: Unspecified
(0.0000°N, 0.0000°E)
Time: 07:22:04
(UTC+02:00)
Language:

Cosmos 1758 - Orbit

View from above orbital plane
View from above orbital plane
View from above satellite
View from above satellite

Ground track
Ground track

The orbit data is extracted from the following two-line orbital elements,

1 16791U 86046A   18174.17072385 -.00000040  00000-0 -48970-5 0  9991
2 16791  82.4704  30.5459 0014986 265.3364  94.6151 15.04706981741463
Epoch (UTC): 23 June 2018 04:05:50
Eccentricity: 0.0014986
inclination: 82.4704°
perigee height: 542 km
apogee height: 563 km
right ascension of ascending node: 30.5459°
argument of perigee: 265.3364°
revolutions per day: 15.04706981
mean anomaly at epoch: 94.6151°
orbit number at epoch: 74146

The dashed part of the orbit path shows where the satellite is in the earth's shadow,  

DLR